Weather History for Jackson, KY

Change the Weather History Date:

Wednesday, December 4, 2013

  Actual Average Record
Temperature  
Mean Temperature 60 °F 41 °F  
Max Temperature 69 °F 49 °F 77 °F (1982)
Min Temperature 50 °F 33 °F 14 °F (1991)
Degree Days  
Heating Degree Days 5 24  
Month to date heating degree days 58 93  
Since 1 July heating degree days 945 893  
Cooling Degree Days 0 0  
Month to date cooling degree days 0 0  
Year to date cooling degree days 1069 1154  
Growing Degree Days 10 (Base 50)    
Moisture  
Dew Point 48 °F    
Average Humidity 69    
Maximum Humidity 83    
Minimum Humidity 55    
Precipitation  
Precipitation T in 0.14 in 1.84 in (1993)
Month to date precipitation T 0.56  
Year to date precipitation 49.63 44.72  
Snow  
Snow 0.00 in 0.10 in - ()
Month to date snowfall 0.0 0.3  
Since 1 July snowfall 2.9 0.9  
Snow Depth 0.00 in    
Sea Level Pressure  
Sea Level Pressure 29.88 in    
Wind  
Wind Speed 5 mph (SSE)    
Max Wind Speed 13 mph    
Max Gust Speed 22 mph    
Visibility 10 miles    
Events      
T = Trace of Precipitation, MM = Missing Value Source: NWS Daily Summary

Daily Weather History Graph

Daily Weather History Graph

Search for Another Location

Airport:

Trip Planner

Search our weather history database for the weather conditions in past years. The results will help you decide how hot, cold, wet, or windy it might be!

Date:

Astronomy

Dec. 04, 2013 Rise Set
Actual Time 7:32 AM EST 5:14 PM EST
Civil Twilight 7:03 AM EST 5:43 PM EST
Nautical Twilight 6:30 AM EST 6:16 PM EST
Astronomical Twilight 5:59 AM EST 6:47 PM EST
Moon 9:00 AM EST (12/4) 7:22 PM EST (12/4)
Length of Visible Light 10h 40m
Length of Day
9h 42m
Waxing Crescent, 4% of the Moon is Illuminated
Dec 4
Waxing Crescent
Dec 9
First Quarter
Dec 17
Full
Dec 25
Last Quarter
Jan 1
New

Hourly Weather History & Observations

Time (EST) Temp. Dew Point Humidity Pressure Visibility Wind Dir Wind Speed Gust Speed Precip Events Conditions
12:26 AM 52.0 °F 46.0 °F 80% 29.89 in 10.0 mi Calm Calm - N/A   Overcast
12:53 AM 53.1 °F 46.0 °F 77% 29.88 in 10.0 mi Calm Calm - N/A   Overcast
1:53 AM 51.1 °F 45.0 °F 80% 29.88 in 10.0 mi ESE 4.6 mph - N/A   Overcast
2:12 AM 51.1 °F 45.0 °F 80% 29.89 in 10.0 mi ESE 4.6 mph - N/A   Overcast
2:53 AM 52.0 °F 45.0 °F 77% 29.88 in 10.0 mi Variable 4.6 mph - N/A   Overcast
3:22 AM 52.0 °F 45.0 °F 77% 29.88 in 10.0 mi SE 3.5 mph - N/A   Overcast
3:53 AM 51.1 °F 44.1 °F 77% 29.87 in 10.0 mi SE 4.6 mph - N/A   Mostly Cloudy
4:53 AM 51.1 °F 45.0 °F 80% 29.88 in 10.0 mi SE 3.5 mph - N/A   Overcast
5:14 AM 52.0 °F 45.0 °F 77% 29.90 in 10.0 mi ESE 3.5 mph - N/A   Overcast
5:53 AM 51.1 °F 45.0 °F 80% 29.90 in 10.0 mi SE 3.5 mph - N/A   Overcast
6:53 AM 51.1 °F 45.0 °F 80% 29.90 in 10.0 mi SSE 4.6 mph - N/A   Mostly Cloudy
7:06 AM 51.1 °F 45.0 °F 80% 29.90 in 10.0 mi SSE 5.8 mph - N/A   Mostly Cloudy
7:30 AM 51.1 °F 45.0 °F 80% 29.91 in 10.0 mi SSE 4.6 mph - N/A   Mostly Cloudy
7:37 AM 51.1 °F 46.0 °F 83% 29.91 in 10.0 mi SSE 4.6 mph - N/A   Mostly Cloudy
7:53 AM 51.1 °F 46.0 °F 83% 29.91 in 10.0 mi South 3.5 mph - N/A   Overcast
8:53 AM 53.1 °F 46.9 °F 80% 29.93 in 10.0 mi Variable 4.6 mph - N/A   Overcast
9:53 AM 55.9 °F 48.0 °F 75% 29.93 in 10.0 mi Calm Calm - N/A   Overcast
10:53 AM 59.0 °F 50.0 °F 72% 29.93 in 10.0 mi Calm Calm - 0.00 in   Overcast
11:14 AM 60.1 °F 50.0 °F 69% 29.93 in 10.0 mi Variable 5.8 mph - N/A   Mostly Cloudy
11:53 AM 63.0 °F 50.0 °F 63% 29.88 in 10.0 mi Variable 4.6 mph - N/A   Mostly Cloudy
12:53 PM 68.0 °F 52.0 °F 56% 29.85 in - Variable 4.6 mph - N/A   Mostly Cloudy
1:53 PM - - N/A% 29.85 in - South 9.2 mph - N/A   Mostly Cloudy
2:53 PM 66.9 °F 51.1 °F 57% 29.83 in 10.0 mi South 6.9 mph - N/A   Overcast
3:53 PM 66.9 °F 51.1 °F 57% 29.82 in 10.0 mi South 11.5 mph 21.9 mph N/A   Scattered Clouds
4:53 PM 64.9 °F 51.1 °F 61% 29.83 in 10.0 mi Variable 4.6 mph - N/A   Partly Cloudy
5:53 PM 64.0 °F 51.1 °F 63% 29.83 in 10.0 mi Variable 6.9 mph - N/A   Clear
6:53 PM 64.0 °F 53.1 °F 67% 29.84 in 10.0 mi Variable 6.9 mph - N/A   Clear
7:53 PM 63.0 °F 53.1 °F 70% 29.85 in 10.0 mi Variable 5.8 mph - N/A   Clear
8:53 PM 64.0 °F 54.0 °F 70% 29.86 in 10.0 mi Variable 5.8 mph - N/A   Clear
9:53 PM 64.0 °F 54.0 °F 70% 29.87 in 10.0 mi Variable 5.8 mph - N/A   Clear
10:53 PM 64.0 °F 54.0 °F 70% 29.88 in 10.0 mi Variable 6.9 mph - N/A   Clear
11:53 PM 64.0 °F 54.0 °F 70% 29.88 in 10.0 mi SSW 6.9 mph - N/A   Clear